Weather reports worldwide

Advertisment
Angermünde, Germany (10291): temperature & dewpoint: 13.12.2018 05:00:00 - 19.12.2018 05:00:00 (CET)Angermünde, Germany (10291): temperature 5cm & temperature -5cm: 13.12.2018 05:00:00 - 19.12.2018 05:00:00 (CET)Angermünde, Germany (10291): temperature -20cm & temperature -100cm: 13.12.2018 05:00:00 - 19.12.2018 05:00:00 (CET)Angermünde, Germany (10291): wind speed & gusts: 13.12.2018 05:00:00 - 19.12.2018 05:00:00 (CET)Angermünde, Germany (10291): wind direction: 13.12.2018 05:00:00 - 19.12.2018 05:00:00 (CET)Angermünde, Germany (10291): reduced air pressure: 13.12.2018 05:00:00 - 19.12.2018 05:00:00 (CET)Angermünde, Germany (10291): visibility: 13.12.2018 05:00:00 - 19.12.2018 05:00:00 (CET)Angermünde, Germany (10291): sunshine duration: 13.12.2018 05:00:00 - 19.12.2018 05:00:00 (CET)Angermünde, Germany (10291): precipitation: 13.12.2018 05:00:00 - 19.12.2018 05:00:00 (CET)
Date & Time tt [°C] td [°C] tt 5cm [°C] tt -5cm [°C] tt -20cm [°C] tt -100cm [°C] ff [km/h] ff [kn] fx [km/h] fx [kn] dd ppp [hPa] vv [km] sd [min] rr [mm]
19.12.2018 05:00:00 -0,2 -0,4 -1,3 0,6 1,4 5,3 9 5 17 9 SE 1021,3 3,6 0 0,0
19.12.2018 04:00:00 -0,2 -0,2 -1,2 0,6 1,5 5,3 10 5 15 8 SE 1021,9 3,2 0 0,0
19.12.2018 03:00:00 0,2 0,2 -0,7 0,6 1,5 5,3 10 5 21 11 SE 1022,5 2,9 0 0,0
19.12.2018 02:00:00 0,8 0,8 0,3 1,1 1,5 5,3 15 8 23 12 SE 1022,7 2,8 0 0,0
19.12.2018 01:00:00 1,3 1,3 1,1 1,2 1,4 5,3 11 6 24 13 SSE 1023,0 2,6 0 0,0
19.12.2018 00:00:00 1,5 1,5 1,5 1,1 1,4 5,3 14 7 24 13 SE 1023,5 0,2 0 0,0
18.12.2018 23:00:00 1,7 1,7 1,6 1,0 1,3 5,3 11 6 19 11 SSE 1024,0 0,1 0 0,0
18.12.2018 22:00:00 1,5 1,5 1,3 0,8 1,3 5,3 11 6 17 9 SE 1024,6 0,1 0 0,0
18.12.2018 21:00:00 1,9 1,9 1,6 0,6 1,3 5,3 9 5 15 8 SSE 1025,1 0,1 0 0,0
18.12.2018 20:00:00 2,0 2,0 1,6 0,5 1,3 5,3 9 5 17 9 SSE 1025,2 0,1 0 0,0
18.12.2018 19:00:00 2,3 2,3 1,8 0,5 1,3 5,4 11 6 19 11 S 1025,5 0,1 0 0,0
18.12.2018 18:00:00 2,0 2,0 0,1 0,6 1,3 5,4 6 4 10 6 S 1025,3 1,9 0 0,0
18.12.2018 17:00:00 2,7 2,5 0,7 0,7 1,3 5,4 8 5 11 6 SSE 1025,3 2,7 0 0,0
18.12.2018 16:00:00 3,5 3,0 2,6 0,7 1,2 5,4 8 4 13 7 SSE 1025,3 4,0 0 0,0
18.12.2018 15:00:00 4,0 3,3 3,4 0,5 1,2 5,4 9 5 13 7 S 1025,1 5 0 0,0
18.12.2018 14:00:00 4,0 3,4 3,5 0,4 1,2 5,4 5 3 10 5 SSE 1025,2 4,5 0 0,0
18.12.2018 13:00:00 3,5 3,1 2,9 0,4 1,2 5,4 8 4 12 6 S 1025,6 4,2 0 0,0
18.12.2018 12:00:00 3,0 2,6 2,6 0,4 1,2 5,4 7 4 12 6 S 1026,0 4,2 0 0,0
18.12.2018 11:00:00 2,1 2,0 1,9 0,4 1,2 5,4 9 5 14 7 S 1026,1 3,2 0 0,0
18.12.2018 10:00:00 1,5 1,4 1,3 0,4 1,2 5,4 5 3 9 5 SSE 1026,1 2,4 0 0,0
18.12.2018 09:00:00 1,1 1,1 0,9 0,4 1,2 5,4 6 3 8 5 SE 1025,8 2,0 0 0,0
18.12.2018 08:00:00 0,9 0,9 0,7 0,4 1,2 5,4 6 3 9 5 S 1025,6 1,5 0 0,0
18.12.2018 07:00:00 0,7 0,7 0,5 0,4 1,2 5,5 5 3 13 7 SSE 1025,2 1,1 0 0,1
18.12.2018 06:00:00 0,6 0,5 0,4 0,4 1,2 5,5 5 3 13 7 SSE 1025,0 1,5 0 0,0
18.12.2018 05:00:00 0,5 0,2 0,3 0,4 1,2 5,5 7 4 14 7 SSE 1025,1 2,9 0 0,0
18.12.2018 04:00:00 0,5 0,1 0,3 0,4 1,3 5,5 8 5 10 5 SE 1025,2 3,3 0 0,0
18.12.2018 03:00:00 0,4 0,0 0,2 0,4 1,3 5,5 8 4 14 8 SE 1025,1 3,4 0 0,0
18.12.2018 02:00:00 0,1 -0,3 -0,3 0,4 1,3 5,5 5 3 13 7 S 1025,0 3,3 0 0,0
18.12.2018 01:00:00 0,3 -0,1 0,0 0,4 1,3 5,5 7 4 11 6 SSE 1025,0 3,3 0 0,0
18.12.2018 00:00:00 0,1 -0,3 -0,9 0,3 1,3 5,5 7 4 9 5 SE 1025,0 3,1 0 0,0
17.12.2018 23:00:00 0,4 0,1 0,1 0,3 1,3 5,5 3 2 9 5 S 1025,2 3,8 0 0,0
17.12.2018 22:00:00 0,3 -0,1 0,1 0,3 1,3 5,5 4 2 9 5 E 1025,0 3,5 0 0,0
17.12.2018 21:00:00 0,2 -0,3 0,0 0,3 1,3 5,5 4 2 12 7 SSE 1024,7 2,8 0 0,0
17.12.2018 20:00:00 0,2 -0,7 0,1 0,3 1,3 5,6 6 3 10 5 SSE 1024,3 4,8 0 0,0
17.12.2018 19:00:00 0,2 -0,9 0,1 0,3 1,3 5,6 6 3 11 6 S 1023,9 5 0 0,0
17.12.2018 18:00:00 0,1 -1,0 0,0 0,3 1,3 5,6 6 4 13 7 SSE 1023,4 6 0 0,0
17.12.2018 17:00:00 0,1 -1,1 0,0 0,3 1,3 5,6 6 3 11 6 SSE 1022,8 6 0 0,0
17.12.2018 16:00:00 0,0 -1,3 0,0 0,3 1,3 5,6 8 4 11 6 SSE 1022,4 6 0 0,0
17.12.2018 15:00:00 0,1 -1,4 0,1 0,3 1,3 5,6 6 4 10 6 ESE 1021,7 6 0 0,0
17.12.2018 14:00:00 0,1 -1,6 0,1 0,3 1,3 5,6 6 3 9 5 S 1021,4 6 0 0,0
17.12.2018 13:00:00 -0,1 -1,5 0,1 0,3 1,3 5,6 5 3 9 5 SSE 1020,9 6 0 0,0
17.12.2018 12:00:00 -0,3 -1,6 0,0 0,3 1,3 5,6 5 3 7 4 S 1020,9 6 0 0,0
17.12.2018 11:00:00 -0,6 -1,7 -0,3 0,3 1,3 5,6 4 2 8 4 S 1020,9 3,7 0 0,0
17.12.2018 10:00:00 -0,8 -1,8 -0,6 0,3 1,3 5,6 5 3 9 5 S 1020,4 4,9 0 0,0
17.12.2018 09:00:00 -1,2 -2,0 -1,2 0,3 1,3 5,7 5 3 12 7 S 1019,8 4,4 0 0,0
17.12.2018 08:00:00 -1,3 -2,0 -1,3 0,3 1,3 5,7 8 5 13 7 S 1019,0 4,4 0 0,0
17.12.2018 07:00:00 -1,4 -2,1 -1,4 0,3 1,4 5,7 8 4 12 7 SE 1018,3 4,3 0 0,0
17.12.2018 06:00:00 -1,5 -2,2 -1,5 0,3 1,4 5,7 6 4 11 6 SSE 1017,9 4,3 0 0,0
17.12.2018 05:00:00 -1,6 -2,5 -1,6 0,3 1,4 5,7 5 3 13 7 S 1017,5 5 0 0,0
17.12.2018 04:00:00 -1,8 -2,8 -1,8 0,3 1,4 5,7 7 4 13 7 SSE 1017,3 5 0 0,0
17.12.2018 03:00:00 -1,8 -3,2 -1,9 0,3 1,4 5,7 9 5 15 8 SSE 1017,0 6 0 0,0
17.12.2018 02:00:00 -1,5 -4,1 -1,6 0,3 1,4 5,7 9 5 15 8 SSE 1016,7 10 0 0,0
17.12.2018 01:00:00 -1,5 -4,3 -1,7 0,3 1,4 5,7 9 5 18 10 SSE 1016,3 11 0 0,0
17.12.2018 00:00:00 -1,4 -4,5 -1,7 0,4 1,4 5,7 10 5 15 8 SE 1016,3 12 0 0,0
16.12.2018 23:00:00 -1,3 -4,1 -1,7 0,4 1,4 5,8 10 6 16 9 SSE 1016,2 12 0 0,0
16.12.2018 22:00:00 -1,2 -4,2 -1,7 0,4 1,5 5,8 11 6 16 9 SE 1015,8 11 0 0,0
16.12.2018 21:00:00 -1,1 -4,1 -1,8 0,4 1,5 5,8 11 6 18 10 SE 1016,0 12 0 0,0
16.12.2018 20:00:00 -0,9 -4,2 -1,2 0,4 1,5 5,8 14 8 23 13 SE 1015,7 13 0 0,0
16.12.2018 19:00:00 -0,8 -4,1 -1,2 0,4 1,5 5,8 13 7 21 11 SE 1015,7 12 0 0,0
16.12.2018 18:00:00 -0,8 -4,0 -1,0 0,5 1,5 5,8 13 7 23 12 SE 1015,7 12 0 0,0
16.12.2018 17:00:00 -0,7 -4,1 -1,0 0,5 1,5 5,8 15 8 27 15 ESE 1015,4 13 0 0,0
16.12.2018 16:00:00 -0,7 -3,6 -0,9 0,5 1,5 5,8 14 8 22 12 ESE 1015,4 10 0 0,0
16.12.2018 15:00:00 -0,7 -2,9 -0,8 0,5 1,5 5,8 11 6 21 11 ESE 1015,6 8 0 0,0
16.12.2018 14:00:00 -0,8 -2,9 -0,9 0,5 1,5 5,8 13 7 19 10 SE 1015,9 7 0 0,0
16.12.2018 13:00:00 -0,8 -2,5 -0,8 0,5 1,5 5,8 13 7 19 11 ESE 1016,6 7 0 0,0
16.12.2018 12:00:00 -0,8 -2,5 -0,8 0,5 1,6 5,9 13 7 20 11 SE 1017,3 7 0 0,0
16.12.2018 11:00:00 -0,9 -2,8 -0,8 0,5 1,6 5,9 11 6 21 11 SE 1018,3 7 0 0,0
16.12.2018 10:00:00 -1,1 -3,2 -1,2 0,5 1,6 5,9 14 8 25 13 SE 1018,7 8 0 0,0
16.12.2018 09:00:00 -1,4 -3,1 -1,6 0,5 1,6 5,9 13 7 19 10 ESE 1018,9 8 0 0,0
16.12.2018 08:00:00 -1,5 -3,1 -1,8 0,5 1,6 5,9 10 5 18 10 ESE 1019,4 7 0 0,0
16.12.2018 07:00:00 -1,7 -3,1 -2,2 0,5 1,6 5,9 14 7 20 11 ESE 1020,0 6 0 0,0
16.12.2018 06:00:00 -1,5 -3,0 -1,9 0,6 1,7 5,9 13 7 21 11 E 1020,9 6 0 0,0
16.12.2018 05:00:00 -1,3 -3,1 -2,4 0,6 1,7 5,9 16 8 26 14 ESE 1021,3 7 0 0,0
16.12.2018 04:00:00 -1,3 -2,5 -2,5 0,6 1,7 5,9 12 6 24 13 E 1022,0 6 0 0,0
16.12.2018 03:00:00 -1,1 -2,3 -2,0 0,7 1,7 5,9 16 8 21 11 E 1022,9 7 0 0,0
16.12.2018 02:00:00 -0,5 -1,9 -0,7 0,7 1,7 6,0 15 8 21 11 ESE 1023,6 7 0 0,0
16.12.2018 01:00:00 -0,6 -2,0 -1,2 0,7 1,7 6,0 13 7 24 13 ESE 1024,1 7 0 0,0
16.12.2018 00:00:00 0,0 -1,1 -0,6 0,8 1,7 6,0 15 8 22 12 ESE 1024,8 6 0 0,0
15.12.2018 23:00:00 0,1 -0,4 0,0 0,8 1,8 6,0 9 5 14 7 E 1025,6 4,5 0 0,0
15.12.2018 22:00:00 -0,1 -0,5 -0,6 0,8 1,8 6,0 6 4 13 7 E 1026,2 3,9 0 0,0
15.12.2018 21:00:00 0,1 -0,4 -0,1 0,8 1,8 6,0 9 5 13 7 E 1026,9 4,3 0 0,0
15.12.2018 20:00:00 0,0 -0,3 -0,4 0,8 1,8 6,0 7 4 12 7 E 1027,2 4,3 0 0,0
15.12.2018 19:00:00 0,1 -0,4 0,0 0,8 1,8 6,0 8 4 12 7 E 1027,9 4,6 0 0,0
15.12.2018 18:00:00 0,0 -0,5 -0,1 0,8 1,8 6,0 9 5 14 8 NE 1028,3 4,3 0 0,0
15.12.2018 17:00:00 0,0 -0,6 -0,1 0,9 1,8 6,0 6 3 10 5 NE 1028,8 3,6 0 0,0
15.12.2018 16:00:00 0,1 -0,6 -0,2 0,9 1,8 6,1 5 3 10 5 NNE 1029,0 6 0 0,0
15.12.2018 15:00:00 0,2 -0,8 0,1 1,0 1,8 6,1 6 4 11 6 NE 1029,1 6 0 0,0
15.12.2018 14:00:00 0,1 -1,0 0,2 1,0 1,8 6,1 8 4 12 7 NNE 1029,2 6 0 0,0
15.12.2018 13:00:00 0,0 -1,1 0,2 0,9 1,8 6,1 8 5 12 6 NNE 1029,7 5 0 0,0
15.12.2018 12:00:00 -0,2 -1,5 0,0 0,9 1,8 6,1 5 3 14 8 NE 1030,1 8 0 0,0
15.12.2018 11:00:00 -0,5 -1,7 -0,2 0,8 1,8 6,1 6 3 11 6 NNE 1030,5 10 0 0,0
15.12.2018 10:00:00 -0,8 -2,1 -0,7 0,8 1,8 6,1 4 2 11 6 N 1030,5 12 0 0,0
15.12.2018 09:00:00 -0,9 -1,9 -1,1 0,7 1,8 6,1 6 3 9 5 NE 1030,5 9 0 0,0
15.12.2018 08:00:00 -1,0 -2,2 -1,3 0,7 1,9 6,1 6 3 10 5 NNE 1030,4 12 0 0,0
15.12.2018 07:00:00 -0,9 -2,4 -1,1 0,8 1,9 6,2 6 4 10 6 NNE 1030,2 14 0 0,0
15.12.2018 06:00:00 -0,9 -2,3 -1,2 0,8 1,9 6,2 6 4 10 5 NNE 1030,1 15 0 0,0
15.12.2018 05:00:00 -0,9 -2,6 -1,2 0,8 1,9 6,2 6 3 10 5 NE 1030,1 17 0 0,0
15.12.2018 04:00:00 -0,8 -2,7 -1,1 0,8 1,9 6,2 6 3 12 7 NE 1030,0 18 0 0,0
15.12.2018 03:00:00 -0,7 -3,2 -1,0 0,8 1,9 6,2 8 5 13 7 ENE 1030,1 26 0 0,0
15.12.2018 02:00:00 -0,4 -4,2 -0,8 0,8 2,0 6,2 10 5 17 9 E 1030,0 40 0 0,0
15.12.2018 01:00:00 -0,6 -3,3 -0,9 0,8 2,0 6,2 9 5 18 10 ENE 1030,1 27 0 0,0
15.12.2018 00:00:00 -0,5 -3,0 -0,8 0,8 2,0 6,2 12 6 19 10 ENE 1029,8 22 0 0,0
14.12.2018 23:00:00 -0,5 -2,2 -0,8 0,8 2,0 6,2 5 3 10 5 E 1030,0 16 0 0,0
14.12.2018 22:00:00 -0,4 -1,8 -0,7 0,8 2,0 6,2 5 3 11 6 E 1029,9 12 0 0,0
14.12.2018 21:00:00 -0,3 -2,0 -0,7 0,9 2,1 6,3 8 4 13 7 ENE 1029,6 13 0 0,0
14.12.2018 20:00:00 -0,2 -1,5 -0,5 0,9 2,1 6,3 4 2 13 7 ENE 1029,4 11 0 0,0
14.12.2018 19:00:00 -0,1 -1,7 -0,4 0,9 2,1 6,3 8 4 18 10 ENE 1029,0 11 0 0,0
14.12.2018 18:00:00 0,0 -1,6 -0,4 1,0 2,2 6,3 10 5 16 9 E 1028,9 11 0 0,0
14.12.2018 17:00:00 0,0 -1,6 -0,2 1,1 2,2 6,3 11 6 17 9 E 1028,5 10 0 0,0
14.12.2018 16:00:00 0,1 -1,4 -0,2 1,2 2,2 6,3 11 6 18 10 E 1028,3 9 0 0,0
14.12.2018 15:00:00 0,2 -1,6 0,1 1,4 2,2 6,3 14 8 19 10 E 1027,8 9 0 0,0
14.12.2018 14:00:00 0,1 -1,8 0,0 1,5 2,2 6,3 12 6 18 10 E 1027,6 10 0 0,0
14.12.2018 13:00:00 0,3 -2,0 0,2 1,5 2,2 6,3 11 6 14 8 E 1027,6 18 0 0,0
14.12.2018 12:00:00 0,3 -2,1 0,3 1,3 2,1 6,3 9 5 14 7 E 1027,4 21 0 0,0
14.12.2018 11:00:00 0,0 -2,1 -0,1 1,0 2,2 6,4 7 4 10 6 ENE 1027,5 17 0 0,0
14.12.2018 10:00:00 -0,2 -1,6 -0,5 0,9 2,2 6,4 4 2 10 5 ENE 1027,3 14 0 0,0
14.12.2018 09:00:00 -0,3 -2,0 -0,6 0,9 2,2 6,4 6 3 10 6 ENE 1026,8 16 0 0,0
14.12.2018 08:00:00 -0,2 -2,2 -0,7 1,0 2,3 6,4 7 4 14 8 E 1026,4 21 0 0,0
14.12.2018 07:00:00 0,0 -2,2 -0,8 1,0 2,3 6,4 6 4 11 6 E 1025,8 21 0 0,0
14.12.2018 06:00:00 0,1 -1,2 -0,3 1,1 2,3 6,4 6 3 12 7 E 1025,7 12 0 0,0
14.12.2018 05:00:00 0,3 -0,7 -0,1 1,2 2,3 6,4 8 4 14 8 ESE 1025,6 9 0 0,0
14.12.2018 04:00:00 0,5 -0,3 0,1 1,2 2,4 6,4 8 4 11 6 ESE 1025,4 7 0 0,0
14.12.2018 03:00:00 0,4 -0,1 0,0 1,2 2,4 6,4 5 3 8 5 NE 1025,5 8 0 0,0
14.12.2018 02:00:00 0,5 0,0 0,1 1,3 2,4 6,4 6 4 11 6 NE 1025,2 8 0 0,0
14.12.2018 01:00:00 0,5 -0,1 0,1 1,3 2,4 6,5 8 4 11 6 NE 1025,0 9 0 0,0
14.12.2018 00:00:00 0,5 -0,2 0,1 1,3 2,5 6,5 6 3 9 5 NNE 1025,0 10 0 0,0
13.12.2018 23:00:00 0,5 -0,1 0,0 1,3 2,5 6,5 3 2 11 6 NNE 1024,9 9 0 0,0
13.12.2018 22:00:00 0,6 -0,2 0,1 1,3 2,5 6,5 8 4 11 6 NE 1024,8 11 0 0,0
13.12.2018 21:00:00 0,6 -0,3 0,0 1,3 2,6 6,5 7 4 11 6 NNE 1024,6 11 0 0,0
13.12.2018 20:00:00 0,7 0,0 0,1 1,4 2,6 6,5 9 5 13 7 NNE 1024,6 10 0 0,0
13.12.2018 19:00:00 0,9 0,2 0,4 1,5 2,6 6,5 10 5 19 11 NE 1024,4 7 0 0,0
13.12.2018 18:00:00 0,9 0,1 0,4 1,5 2,7 6,5 7 4 16 8 NE 1024,4 8 0 0,0
13.12.2018 17:00:00 0,9 0,5 0,4 1,6 2,7 6,5 11 6 15 8 NNE 1024,4 5 0 0,0
13.12.2018 16:00:00 1,3 0,8 0,2 2,1 2,7 6,5 5 3 15 8 NNE 1024,3 4,8 0 0,0
13.12.2018 15:00:00 2,1 1,2 1,6 2,4 2,6 6,5 10 5 16 8 NNE 1024,4 9 0 0,0
13.12.2018 14:00:00 2,3 1,6 2,1 2,3 2,5 6,6 10 5 14 8 NNE 1024,5 8 0 0,0
13.12.2018 13:00:00 1,9 1,4 1,8 1,9 2,5 6,6 7 4 14 7 NE 1024,7 7 0 0,0
13.12.2018 12:00:00 1,5 1,4 1,6 1,4 2,5 6,6 7 4 13 7 NE 1024,9 4,1 0 0,0
13.12.2018 11:00:00 1,3 1,2 1,2 1,2 2,5 6,6 9 5 13 7 E 1025,3 5 0 0,0
13.12.2018 10:00:00 0,7 0,7 0,4 1,1 2,5 6,6 6 3 11 6 NE 1025,2 3,2 0 0,0
13.12.2018 09:00:00 0,5 0,5 0,0 1,1 2,5 6,6 6 4 9 5 N 1025,1 4,3 0 0,0
13.12.2018 08:00:00 0,5 0,5 0,0 1,1 2,6 6,6 6 3 10 6 NNE 1025,2 6 0 0,0
13.12.2018 07:00:00 0,2 0,2 0,0 1,1 2,6 6,6 5 3 13 7 NNW 1025,1 2,7 0 0,0
13.12.2018 06:00:00 0,3 0,3 0,0 1,1 2,6 6,6 4 2 13 7 N 1025,3 2,9 0 0,0
13.12.2018 05:00:00 0,1 0,1 -0,2 1,1 2,7 6,6 5 3 14 7 N 1025,6 4,8 0 0,0

tt = temperature
td = dewpoint
tt 5cm = temperature 5cm
tt -5cm = temperature -5cm
tt -20cm = temperature -20cm
tt -100cm = temperature -100cm
ff = wind speed
fx = gusts
dd = wind direction
ppp = reduced air pressure
vv = visibility
sd = sunshine duration
rr = precipitation

Next stations